Time,TemperatureF,DewpointF,PressureIn,WindDirection,WindDirectionDegrees,WindSpeedMPH,WindSpeedGustMPH,Humidity,HourlyPrecipIn,Conditions,Clouds,dailyrainin,SoftwareType,DateUTC
2013-05-03 00:02:00,46.8,32.0,30.53,ENE,68,0.0,0.0,56,0.00,,,0.00,meteohub,2013-05-03 04:02:00,
2013-05-03 00:07:00,46.6,32.2,30.53,East,90,0.0,0.0,57,0.00,,,0.00,meteohub,2013-05-03 04:07:00,
2013-05-03 00:12:00,46.4,32.0,30.53,East,90,0.0,0.0,57,0.00,,,0.00,meteohub,2013-05-03 04:12:00,
2013-05-03 00:17:00,46.4,32.0,30.53,East,90,0.0,0.0,57,0.00,,,0.00,meteohub,2013-05-03 04:17:00,
2013-05-03 00:22:00,46.2,31.8,30.53,East,90,0.0,0.0,57,0.00,,,0.00,meteohub,2013-05-03 04:22:00,
2013-05-03 00:27:00,46.0,31.6,30.53,East,90,0.0,0.0,57,0.00,,,0.00,meteohub,2013-05-03 04:27:00,
2013-05-03 00:32:00,45.9,32.4,30.53,East,90,0.0,0.0,59,0.00,,,0.00,meteohub,2013-05-03 04:32:00,
2013-05-03 00:37:00,45.5,31.6,30.53,East,90,0.0,0.0,58,0.00,,,0.00,meteohub,2013-05-03 04:37:00,
2013-05-03 00:42:00,45.1,32.2,30.53,East,90,0.0,0.0,60,0.00,,,0.00,meteohub,2013-05-03 04:42:00,
2013-05-03 00:47:00,44.8,32.2,30.53,East,90,0.0,0.0,61,0.00,,,0.00,meteohub,2013-05-03 04:47:00,
2013-05-03 00:52:00,44.6,32.0,30.53,East,90,0.0,0.0,61,0.00,,,0.00,meteohub,2013-05-03 04:52:00,
2013-05-03 00:57:00,44.4,31.8,30.53,East,90,0.0,0.0,61,0.00,,,0.00,meteohub,2013-05-03 04:57:00,
2013-05-03 01:02:00,44.4,31.5,30.56,East,90,0.0,0.0,60,0.00,,,0.00,meteohub,2013-05-03 05:02:00,
2013-05-03 01:07:00,44.2,31.6,30.56,ENE,68,0.0,0.0,61,0.00,,,0.00,meteohub,2013-05-03 05:07:00,
2013-05-03 01:12:00,44.1,31.5,30.56,ENE,68,0.0,0.0,61,0.00,,,0.00,meteohub,2013-05-03 05:12:00,
2013-05-03 01:17:00,44.1,31.8,30.53,ENE,68,0.0,0.0,62,0.00,,,0.00,meteohub,2013-05-03 05:17:00,
2013-05-03 01:22:00,43.9,31.8,30.53,ENE,68,0.0,0.0,62,0.00,,,0.00,meteohub,2013-05-03 05:22:00,
2013-05-03 01:27:00,43.5,32.2,30.53,ENE,68,0.0,0.0,64,0.00,,,0.00,meteohub,2013-05-03 05:27:00,
2013-05-03 01:32:00,43.3,32.4,30.53,ENE,68,0.0,0.0,65,0.00,,,0.00,meteohub,2013-05-03 05:32:00,
2013-05-03 01:37:00,43.3,32.4,30.53,ENE,68,0.0,0.0,65,0.00,,,0.00,meteohub,2013-05-03 05:37:00,
2013-05-03 01:47:00,43.2,32.5,30.53,North,0,0.0,0.0,66,0.00,,,0.00,meteohub,2013-05-03 05:47:00,
2013-05-03 01:52:00,43.2,31.8,30.53,North,0,0.0,0.0,64,0.00,,,0.00,meteohub,2013-05-03 05:52:00,
2013-05-03 01:57:00,43.0,32.0,30.53,North,0,0.0,0.0,65,0.00,,,0.00,meteohub,2013-05-03 05:57:00,
2013-05-03 02:02:00,42.8,32.5,30.53,North,0,0.0,0.0,67,0.00,,,0.00,meteohub,2013-05-03 06:02:00,
2013-05-03 02:07:00,42.4,32.7,30.53,North,0,0.0,0.0,68,0.00,,,0.00,meteohub,2013-05-03 06:07:00,
2013-05-03 02:12:00,42.3,32.5,30.53,North,0,0.0,0.0,68,0.00,,,0.00,meteohub,2013-05-03 06:12:00,
2013-05-03 02:17:00,42.3,32.5,30.50,North,0,0.0,0.0,68,0.00,,,0.00,meteohub,2013-05-03 06:17:00,
2013-05-03 02:22:00,42.1,32.7,30.50,NNW,338,0.0,0.0,69,0.00,,,0.00,meteohub,2013-05-03 06:22:00,
2013-05-03 02:27:00,42.1,32.7,30.50,NNW,338,0.0,0.0,69,0.00,,,0.00,meteohub,2013-05-03 06:27:00,
2013-05-03 02:32:00,41.7,32.7,30.53,NNW,338,0.0,0.0,70,0.00,,,0.00,meteohub,2013-05-03 06:32:00,
2013-05-03 02:37:00,41.7,32.0,30.53,East,90,0.0,0.0,68,0.00,,,0.00,meteohub,2013-05-03 06:37:00,
2013-05-03 02:42:00,41.7,32.7,30.53,ESE,112,0.0,0.0,70,0.00,,,0.00,meteohub,2013-05-03 06:42:00,
2013-05-03 02:47:00,41.7,33.1,30.53,ESE,112,0.0,0.0,71,0.00,,,0.00,meteohub,2013-05-03 06:47:00,
2013-05-03 02:52:00,41.7,32.7,30.53,SE,135,0.0,0.0,70,0.00,,,0.00,meteohub,2013-05-03 06:52:00,
2013-05-03 02:57:00,41.7,33.1,30.53,SE,135,0.0,0.0,71,0.00,,,0.00,meteohub,2013-05-03 06:57:00,
2013-05-03 03:02:00,41.7,33.1,30.53,ESE,112,0.0,0.0,71,0.00,,,0.00,meteohub,2013-05-03 07:02:00,
2013-05-03 03:07:00,41.7,33.1,30.53,ESE,112,0.0,0.0,71,0.00,,,0.00,meteohub,2013-05-03 07:07:00,
2013-05-03 03:12:00,41.7,33.1,30.53,ESE,112,0.0,0.0,71,0.00,,,0.00,meteohub,2013-05-03 07:12:00,
2013-05-03 03:17:00,41.7,32.7,30.53,ESE,112,0.0,0.0,70,0.00,,,0.00,meteohub,2013-05-03 07:17:00,
2013-05-03 03:22:00,41.7,33.1,30.53,ENE,68,0.0,0.0,71,0.00,,,0.00,meteohub,2013-05-03 07:22:00,
2013-05-03 03:27:00,41.9,33.6,30.53,ENE,68,0.0,0.0,72,0.00,,,0.00,meteohub,2013-05-03 07:27:00,
2013-05-03 03:32:00,42.1,33.8,30.53,ENE,68,0.0,0.0,72,0.00,,,0.00,meteohub,2013-05-03 07:32:00,
2013-05-03 03:37:00,42.3,34.2,30.53,ENE,68,0.0,0.0,73,0.00,,,0.00,meteohub,2013-05-03 07:37:00,
2013-05-03 03:42:00,42.3,34.0,30.53,East,90,0.0,0.0,72,0.00,,,0.00,meteohub,2013-05-03 07:42:00,
2013-05-03 03:47:00,42.3,34.0,30.53,ENE,68,0.0,0.0,72,0.00,,,0.00,meteohub,2013-05-03 07:47:00,
2013-05-03 03:52:00,42.4,34.3,30.53,ENE,68,0.0,0.0,73,0.00,,,0.00,meteohub,2013-05-03 07:52:00,
2013-05-03 03:57:00,42.4,34.3,30.53,ENE,68,0.0,0.0,73,0.00,,,0.00,meteohub,2013-05-03 07:57:00,
2013-05-03 04:02:00,42.4,34.7,30.53,East,90,0.0,0.0,74,0.00,,,0.00,meteohub,2013-05-03 08:02:00,
2013-05-03 04:07:00,42.4,34.3,30.53,ENE,68,0.0,0.0,73,0.00,,,0.00,meteohub,2013-05-03 08:07:00,
2013-05-03 04:12:00,42.4,34.7,30.53,ENE,68,0.0,0.0,74,0.00,,,0.00,meteohub,2013-05-03 08:12:00,
2013-05-03 04:17:00,42.3,34.2,30.53,NE,45,0.0,0.0,73,0.00,,,0.00,meteohub,2013-05-03 08:17:00,
2013-05-03 04:22:00,42.4,34.7,30.53,ENE,68,0.0,0.0,74,0.00,,,0.00,meteohub,2013-05-03 08:22:00,
2013-05-03 04:27:00,42.4,34.7,30.53,NNE,22,0.0,0.0,74,0.00,,,0.00,meteohub,2013-05-03 08:27:00,
2013-05-03 04:32:00,42.6,34.9,30.53,ENE,68,0.0,0.0,74,0.00,,,0.00,meteohub,2013-05-03 08:32:00,
2013-05-03 04:37:00,42.4,34.7,30.53,ENE,68,0.0,0.0,74,0.00,,,0.00,meteohub,2013-05-03 08:37:00,
2013-05-03 04:42:00,42.6,34.9,30.53,NNE,22,0.0,2.0,74,0.00,,,0.00,meteohub,2013-05-03 08:42:00,
2013-05-03 04:47:00,42.4,34.7,30.53,North,0,2.0,2.0,74,0.00,,,0.00,meteohub,2013-05-03 08:47:00,
2013-05-03 04:52:00,42.4,35.1,30.53,ENE,68,0.0,2.0,75,0.00,,,0.00,meteohub,2013-05-03 08:52:00,
2013-05-03 04:57:00,42.3,34.5,30.53,East,90,0.0,2.0,74,0.00,,,0.00,meteohub,2013-05-03 08:57:00,
2013-05-03 05:02:00,42.1,34.3,30.53,ENE,68,0.0,2.0,74,0.00,,,0.00,meteohub,2013-05-03 09:02:00,
2013-05-03 05:07:00,42.1,34.7,30.53,NE,45,0.0,2.0,75,0.00,,,0.00,meteohub,2013-05-03 09:07:00,
2013-05-03 05:12:00,42.1,34.7,30.53,North,0,0.0,2.0,75,0.00,,,0.00,meteohub,2013-05-03 09:12:00,
2013-05-03 05:17:00,41.7,34.7,30.56,North,0,0.0,2.0,76,0.00,,,0.00,meteohub,2013-05-03 09:17:00,
2013-05-03 05:22:00,41.7,34.7,30.56,NNW,338,0.0,2.0,76,0.00,,,0.00,meteohub,2013-05-03 09:22:00,
2013-05-03 05:27:00,41.7,35.1,30.56,North,0,2.0,0.0,77,0.00,,,0.00,meteohub,2013-05-03 09:27:00,
2013-05-03 05:32:00,41.7,35.1,30.56,North,0,1.0,2.0,77,0.00,,,0.00,meteohub,2013-05-03 09:32:00,
2013-05-03 05:37:00,41.7,35.4,30.56,NNW,338,1.0,2.0,78,0.00,,,0.00,meteohub,2013-05-03 09:37:00,
2013-05-03 05:42:00,41.7,35.4,30.56,NNW,338,0.0,2.0,78,0.00,,,0.00,meteohub,2013-05-03 09:42:00,
2013-05-03 05:47:00,41.9,35.6,30.56,North,0,0.0,2.0,78,0.00,,,0.00,meteohub,2013-05-03 09:47:00,
2013-05-03 05:52:00,41.9,35.6,30.56,NNW,338,0.0,2.0,78,0.00,,,0.00,meteohub,2013-05-03 09:52:00,
2013-05-03 05:57:00,41.9,35.6,30.56,NNW,338,0.0,2.0,78,0.00,,,0.00,meteohub,2013-05-03 09:57:00,
2013-05-03 06:02:00,41.9,35.6,30.56,North,0,0.0,2.0,78,0.00,,,0.00,meteohub,2013-05-03 10:02:00,
2013-05-03 06:07:00,41.9,35.6,30.56,NNW,338,0.0,0.0,78,0.00,,,0.00,meteohub,2013-05-03 10:07:00,
2013-05-03 06:12:00,41.9,35.6,30.56,North,0,0.0,0.0,78,0.00,,,0.00,meteohub,2013-05-03 10:12:00,
2013-05-03 06:17:00,42.1,36.3,30.56,North,0,0.0,1.0,80,0.00,,,0.00,meteohub,2013-05-03 10:17:00,
2013-05-03 06:22:00,42.1,36.3,30.56,NNW,338,0.0,3.0,80,0.00,,,0.00,meteohub,2013-05-03 10:22:00,
2013-05-03 06:27:00,42.3,36.9,30.56,NW,315,1.0,3.0,81,0.00,,,0.00,meteohub,2013-05-03 10:27:00,
2013-05-03 06:32:00,42.4,36.7,30.56,NW,315,1.0,3.0,80,0.00,,,0.00,meteohub,2013-05-03 10:32:00,
2013-05-03 06:37:00,42.4,37.0,30.56,NNE,22,2.0,3.0,81,0.00,,,0.00,meteohub,2013-05-03 10:37:00,
2013-05-03 06:42:00,42.8,37.8,30.56,NW,315,0.0,3.0,82,0.00,,,0.00,meteohub,2013-05-03 10:42:00,
2013-05-03 06:47:00,42.8,37.4,30.56,North,0,3.0,4.0,81,0.00,,,0.00,meteohub,2013-05-03 10:47:00,
2013-05-03 06:52:00,43.0,37.6,30.56,North,0,1.0,4.0,81,0.00,,,0.00,meteohub,2013-05-03 10:52:00,
2013-05-03 06:57:00,43.3,37.9,30.56,North,0,2.0,4.0,81,0.00,,,0.00,meteohub,2013-05-03 10:57:00,
2013-05-03 07:02:00,43.5,38.1,30.56,NW,315,0.0,4.0,81,0.00,,,0.00,meteohub,2013-05-03 11:02:00,
2013-05-03 07:07:00,43.7,37.9,30.56,North,0,3.0,4.0,80,0.00,,,0.00,meteohub,2013-05-03 11:07:00,
2013-05-03 07:12:00,43.9,38.1,30.56,North,0,3.0,4.0,80,0.00,,,0.00,meteohub,2013-05-03 11:12:00,
2013-05-03 07:17:00,44.1,38.3,30.56,NNE,22,2.0,3.0,80,0.00,,,0.00,meteohub,2013-05-03 11:17:00,
2013-05-03 07:22:00,44.2,38.5,30.56,NNW,338,2.0,4.0,80,0.00,,,0.00,meteohub,2013-05-03 11:22:00,
2013-05-03 07:27:00,44.6,38.5,30.56,North,0,3.0,4.0,79,0.00,,,0.00,meteohub,2013-05-03 11:27:00,
2013-05-03 07:32:00,44.8,37.9,30.56,North,0,4.0,4.0,77,0.00,,,0.00,meteohub,2013-05-03 11:32:00,
2013-05-03 07:37:00,45.1,38.3,30.56,NNW,338,4.0,6.0,77,0.00,,,0.00,meteohub,2013-05-03 11:37:00,
2013-05-03 07:42:00,45.5,38.5,30.56,NNE,22,2.0,6.0,76,0.00,,,0.00,meteohub,2013-05-03 11:42:00,
2013-05-03 07:47:00,45.9,38.1,30.59,NNW,338,2.0,6.0,74,0.00,,,0.00,meteohub,2013-05-03 11:47:00,
2013-05-03 07:52:00,46.0,38.3,30.59,NNW,338,4.0,5.0,74,0.00,,,0.00,meteohub,2013-05-03 11:52:00,
2013-05-03 07:57:00,46.4,38.3,30.59,North,0,3.0,5.0,73,0.00,,,0.00,meteohub,2013-05-03 11:57:00,
2013-05-03 08:02:00,46.8,37.9,30.59,NNW,338,3.0,5.0,71,0.00,,,0.00,meteohub,2013-05-03 12:02:00,
2013-05-03 08:07:00,46.9,38.1,30.59,ENE,68,5.0,5.0,71,0.00,,,0.00,meteohub,2013-05-03 12:07:00,
2013-05-03 08:12:00,47.3,37.6,30.59,East,90,1.0,5.0,69,0.00,,,0.00,meteohub,2013-05-03 12:12:00,
2013-05-03 08:17:00,47.8,38.1,30.59,NNE,22,0.0,5.0,69,0.00,,,0.00,meteohub,2013-05-03 12:17:00,
2013-05-03 08:22:00,48.2,38.1,30.59,NNE,22,4.0,6.0,68,0.00,,,0.00,meteohub,2013-05-03 12:22:00,
2013-05-03 08:27:00,48.4,37.9,30.59,ESE,112,6.0,6.0,67,0.00,,,0.00,meteohub,2013-05-03 12:27:00,
2013-05-03 08:32:00,48.6,37.4,30.59,NNW,338,3.0,6.0,65,0.00,,,0.00,meteohub,2013-05-03 12:32:00,
2013-05-03 08:37:00,48.9,37.8,30.59,NNW,338,0.0,6.0,65,0.00,,,0.00,meteohub,2013-05-03 12:37:00,
2013-05-03 08:42:00,49.1,37.4,30.59,NNW,338,3.0,6.0,64,0.00,,,0.00,meteohub,2013-05-03 12:42:00,
2013-05-03 08:47:00,49.1,37.4,30.59,North,0,1.0,6.0,64,0.00,,,0.00,meteohub,2013-05-03 12:47:00,
2013-05-03 08:52:00,48.9,37.2,30.59,NW,315,3.0,5.0,64,0.00,,,0.00,meteohub,2013-05-03 12:52:00,
2013-05-03 08:57:00,49.3,36.9,30.59,NNE,22,2.0,5.0,62,0.00,,,0.00,meteohub,2013-05-03 12:57:00,
2013-05-03 09:02:00,50.4,37.9,30.62,NNW,338,2.0,4.0,62,0.00,,,0.00,meteohub,2013-05-03 13:02:00,
2013-05-03 09:07:00,50.4,37.9,30.62,NW,315,1.0,4.0,62,0.00,,,0.00,meteohub,2013-05-03 13:07:00,
2013-05-03 09:12:00,50.2,36.9,30.62,NNW,338,1.0,3.0,60,0.00,,,0.00,meteohub,2013-05-03 13:12:00,
2013-05-03 09:17:00,50.4,36.7,30.59,NW,315,3.0,4.0,59,0.00,,,0.00,meteohub,2013-05-03 13:17:00,
2013-05-03 09:22:00,50.4,37.0,30.59,WNW,292,3.0,4.0,60,0.00,,,0.00,meteohub,2013-05-03 13:22:00,
2013-05-03 09:27:00,51.1,36.0,30.59,North,0,3.0,5.0,56,0.00,,,0.00,meteohub,2013-05-03 13:27:00,
2013-05-03 09:32:00,51.4,36.3,30.59,North,0,2.0,5.0,56,0.00,,,0.00,meteohub,2013-05-03 13:32:00,
2013-05-03 09:37:00,51.8,36.1,30.59,NNW,338,4.0,5.0,55,0.00,,,0.00,meteohub,2013-05-03 13:37:00,
2013-05-03 09:42:00,52.3,36.1,30.59,North,0,4.0,5.0,54,0.00,,,0.00,meteohub,2013-05-03 13:42:00,
2013-05-03 09:47:00,55.0,37.8,30.59,North,0,1.0,4.0,52,0.00,,,0.00,meteohub,2013-05-03 13:47:00,
2013-05-03 09:52:00,55.4,37.0,30.59,North,0,4.0,5.0,50,0.00,,,0.00,meteohub,2013-05-03 13:52:00,
2013-05-03 09:57:00,55.4,36.5,30.59,ENE,68,3.0,5.0,49,0.00,,,0.00,meteohub,2013-05-03 13:57:00,
2013-05-03 10:02:00,56.5,37.6,30.56,NNW,338,0.0,5.0,49,0.00,,,0.00,meteohub,2013-05-03 14:02:00,
2013-05-03 10:07:00,56.7,37.2,30.56,ENE,68,4.0,5.0,48,0.00,,,0.00,meteohub,2013-05-03 14:07:00,
2013-05-03 10:12:00,57.4,37.9,30.56,ENE,68,0.0,6.0,48,0.00,,,0.00,meteohub,2013-05-03 14:12:00,
2013-05-03 10:17:00,58.5,37.8,30.59,NNE,22,2.0,6.0,46,0.00,,,0.00,meteohub,2013-05-03 14:17:00,
2013-05-03 10:22:00,57.9,36.7,30.59,ENE,68,4.0,6.0,45,0.00,,,0.00,meteohub,2013-05-03 14:22:00,
2013-05-03 10:27:00,57.6,36.5,30.59,NNW,338,3.0,6.0,45,0.00,,,0.00,meteohub,2013-05-03 14:27:00,
2013-05-03 10:32:00,58.5,36.7,30.56,ENE,68,4.0,6.0,44,0.00,,,0.00,meteohub,2013-05-03 14:32:00,
2013-05-03 10:37:00,59.2,37.4,30.56,NNE,22,3.0,7.0,44,0.00,,,0.00,meteohub,2013-05-03 14:37:00,
2013-05-03 10:42:00,59.9,37.9,30.56,ENE,68,3.0,7.0,44,0.00,,,0.00,meteohub,2013-05-03 14:42:00,
2013-05-03 10:47:00,60.6,38.1,30.56,NNE,22,3.0,7.0,43,0.00,,,0.00,meteohub,2013-05-03 14:47:00,
2013-05-03 10:52:00,60.6,38.1,30.56,WNW,292,3.0,6.0,43,0.00,,,0.00,meteohub,2013-05-03 14:52:00,
2013-05-03 10:57:00,60.4,36.7,30.56,NNE,22,3.0,7.0,41,0.00,,,0.00,meteohub,2013-05-03 14:57:00,
2013-05-03 11:02:00,60.4,37.2,30.56,NNE,22,3.0,7.0,42,0.00,,,0.00,meteohub,2013-05-03 15:02:00,
2013-05-03 11:07:00,60.6,36.9,30.56,NE,45,4.0,6.0,41,0.00,,,0.00,meteohub,2013-05-03 15:07:00,
2013-05-03 11:12:00,61.5,37.6,30.56,NNE,22,8.0,9.0,41,0.00,,,0.00,meteohub,2013-05-03 15:12:00,
2013-05-03 11:17:00,61.2,36.7,30.56,North,0,3.0,9.0,40,0.00,,,0.00,meteohub,2013-05-03 15:17:00,
2013-05-03 11:22:00,60.8,36.3,30.56,East,90,2.0,9.0,40,0.00,,,0.00,meteohub,2013-05-03 15:22:00,
2013-05-03 11:27:00,61.0,37.2,30.56,NE,45,1.0,8.0,41,0.00,,,0.00,meteohub,2013-05-03 15:27:00,
2013-05-03 11:32:00,61.3,36.1,30.56,NNW,338,4.0,6.0,39,0.00,,,0.00,meteohub,2013-05-03 15:32:00,
2013-05-03 11:37:00,61.2,36.0,30.56,NNW,338,4.0,6.0,39,0.00,,,0.00,meteohub,2013-05-03 15:37:00,
2013-05-03 11:42:00,61.3,36.9,30.56,ESE,112,4.0,6.0,40,0.00,,,0.00,meteohub,2013-05-03 15:42:00,
2013-05-03 11:47:00,61.3,36.9,30.53,NE,45,4.0,5.0,40,0.00,,,0.00,meteohub,2013-05-03 15:47:00,
2013-05-03 11:52:00,62.8,36.9,30.53,ESE,112,0.0,11.0,38,0.00,,,0.00,meteohub,2013-05-03 15:52:00,
2013-05-03 11:57:00,62.8,36.9,30.53,NNW,338,4.0,11.0,38,0.00,,,0.00,meteohub,2013-05-03 15:57:00,
2013-05-03 12:02:00,63.0,37.0,30.53,East,90,4.0,11.0,38,0.00,,,0.00,meteohub,2013-05-03 16:02:00,
2013-05-03 12:07:00,63.9,38.5,30.53,NE,45,8.0,10.0,39,0.00,,,0.00,meteohub,2013-05-03 16:07:00,
2013-05-03 12:12:00,63.9,37.0,30.53,NNE,22,4.0,11.0,37,0.00,,,0.00,meteohub,2013-05-03 16:12:00,
2013-05-03 12:17:00,63.9,37.8,30.53,ENE,68,6.0,11.0,38,0.00,,,0.00,meteohub,2013-05-03 16:17:00,
2013-05-03 12:22:00,63.3,36.7,30.53,East,90,4.0,11.0,37,0.00,,,0.00,meteohub,2013-05-03 16:22:00,
2013-05-03 12:27:00,63.3,37.4,30.53,East,90,5.0,9.0,38,0.00,,,0.00,meteohub,2013-05-03 16:27:00,
2013-05-03 12:32:00,63.9,37.8,30.53,NNE,22,3.0,8.0,38,0.00,,,0.00,meteohub,2013-05-03 16:32:00,
2013-05-03 12:37:00,63.1,36.5,30.53,NE,45,4.0,7.0,37,0.00,,,0.00,meteohub,2013-05-03 16:37:00,
2013-05-03 12:42:00,63.1,37.2,30.53,NNE,22,3.0,9.0,38,0.00,,,0.00,meteohub,2013-05-03 16:42:00,
2013-05-03 12:47:00,63.1,37.8,30.53,NNW,338,6.0,9.0,39,0.00,,,0.00,meteohub,2013-05-03 16:47:00,
2013-05-03 12:52:00,62.6,36.7,30.53,North,0,3.0,9.0,38,0.00,,,0.00,meteohub,2013-05-03 16:52:00,
2013-05-03 12:57:00,62.4,37.2,30.53,NE,45,4.0,8.0,39,0.00,,,0.00,meteohub,2013-05-03 16:57:00,
2013-05-03 13:02:00,62.2,37.0,30.53,NE,45,3.0,8.0,39,0.00,,,0.00,meteohub,2013-05-03 17:02:00,
2013-05-03 13:07:00,62.6,37.9,30.53,NE,45,2.0,8.0,40,0.00,,,0.00,meteohub,2013-05-03 17:07:00,
2013-05-03 13:12:00,62.8,36.9,30.53,NW,315,6.0,8.0,38,0.00,,,0.00,meteohub,2013-05-03 17:12:00,
2013-05-03 13:17:00,61.7,37.2,30.53,NE,45,3.0,8.0,40,0.00,,,0.00,meteohub,2013-05-03 17:17:00,
2013-05-03 13:22:00,62.2,37.6,30.53,ENE,68,6.0,7.0,40,0.00,,,0.00,meteohub,2013-05-03 17:22:00,
2013-05-03 13:27:00,61.5,37.0,30.53,North,0,4.0,7.0,40,0.00,,,0.00,meteohub,2013-05-03 17:27:00,
2013-05-03 13:32:00,61.7,37.2,30.53,NNW,338,8.0,8.0,40,0.00,,,0.00,meteohub,2013-05-03 17:32:00,
2013-05-03 13:37:00,61.9,37.9,30.53,NE,45,6.0,8.0,41,0.00,,,0.00,meteohub,2013-05-03 17:37:00,
2013-05-03 13:42:00,62.4,38.5,30.53,SSE,158,4.0,8.0,41,0.00,,,0.00,meteohub,2013-05-03 17:42:00,
2013-05-03 13:47:00,62.1,38.1,30.53,NNE,22,6.0,9.0,41,0.00,,,0.00,meteohub,2013-05-03 17:47:00,
2013-05-03 13:52:00,62.2,38.3,30.53,NNE,22,6.0,9.0,41,0.00,,,0.00,meteohub,2013-05-03 17:52:00,
2013-05-03 13:57:00,62.1,38.1,30.53,North,0,1.0,9.0,41,0.00,,,0.00,meteohub,2013-05-03 17:57:00,
2013-05-03 14:02:00,61.5,37.6,30.53,NE,45,5.0,9.0,41,0.00,,,0.00,meteohub,2013-05-03 18:02:00,
2013-05-03 14:07:00,62.4,39.0,30.53,NNW,338,6.0,9.0,42,0.00,,,0.00,meteohub,2013-05-03 18:07:00,
2013-05-03 14:12:00,62.1,38.1,30.53,SSE,158,3.0,7.0,41,0.00,,,0.00,meteohub,2013-05-03 18:12:00,
2013-05-03 14:17:00,61.3,37.4,30.53,North,0,2.0,7.0,41,0.00,,,0.00,meteohub,2013-05-03 18:17:00,
2013-05-03 14:22:00,62.1,38.7,30.53,ESE,112,3.0,8.0,42,0.00,,,0.00,meteohub,2013-05-03 18:22:00,
2013-05-03 14:27:00,63.0,38.8,30.53,WNW,292,4.0,8.0,41,0.00,,,0.00,meteohub,2013-05-03 18:27:00,
2013-05-03 14:32:00,63.0,38.8,30.50,North,0,4.0,8.0,41,0.00,,,0.00,meteohub,2013-05-03 18:32:00,
2013-05-03 14:37:00,62.6,37.9,30.50,ENE,68,3.0,7.0,40,0.00,,,0.00,meteohub,2013-05-03 18:37:00,
2013-05-03 14:42:00,62.2,38.3,30.50,SW,225,6.0,6.0,41,0.00,,,0.00,meteohub,2013-05-03 18:42:00,
2013-05-03 14:47:00,61.9,37.4,30.50,South,180,2.0,6.0,40,0.00,,,0.00,meteohub,2013-05-03 18:47:00,
2013-05-03 14:52:00,62.1,38.7,30.50,ESE,112,3.0,7.0,42,0.00,,,0.00,meteohub,2013-05-03 18:52:00,
2013-05-03 14:57:00,62.6,38.7,30.50,NNE,22,4.0,7.0,41,0.00,,,0.00,meteohub,2013-05-03 18:57:00,
2013-05-03 15:02:00,62.8,39.4,30.47,NNW,338,4.0,8.0,42,0.00,,,0.00,meteohub,2013-05-03 19:02:00,
2013-05-03 15:07:00,63.0,38.8,30.47,NE,45,6.0,8.0,41,0.00,,,0.00,meteohub,2013-05-03 19:07:00,
2013-05-03 15:12:00,63.0,38.8,30.47,NNW,338,2.0,8.0,41,0.00,,,0.00,meteohub,2013-05-03 19:12:00,
2013-05-03 15:17:00,63.1,39.0,30.47,ENE,68,0.0,6.0,41,0.00,,,0.00,meteohub,2013-05-03 19:17:00,
2013-05-03 15:22:00,63.5,39.4,30.47,NE,45,6.0,10.0,41,0.00,,,0.00,meteohub,2013-05-03 19:22:00,
2013-05-03 15:27:00,63.9,39.7,30.47,NNW,338,4.0,10.0,41,0.00,,,0.00,meteohub,2013-05-03 19:27:00,
2013-05-03 15:32:00,63.5,38.8,30.47,WSW,248,0.0,8.0,40,0.00,,,0.00,meteohub,2013-05-03 19:32:00,
2013-05-03 15:37:00,63.0,38.3,30.47,ENE,68,3.0,8.0,40,0.00,,,0.00,meteohub,2013-05-03 19:37:00,
2013-05-03 15:42:00,63.0,38.3,30.47,ENE,68,4.0,7.0,40,0.00,,,0.00,meteohub,2013-05-03 19:42:00,
2013-05-03 15:47:00,63.0,38.3,30.47,NE,45,3.0,6.0,40,0.00,,,0.00,meteohub,2013-05-03 19:47:00,
2013-05-03 15:52:00,62.8,38.8,30.47,North,0,3.0,7.0,41,0.00,,,0.00,meteohub,2013-05-03 19:52:00,
2013-05-03 15:57:00,62.6,38.7,30.47,SSE,158,5.0,7.0,41,0.00,,,0.00,meteohub,2013-05-03 19:57:00,
2013-05-03 16:02:00,63.1,39.0,30.47,ENE,68,6.0,6.0,41,0.00,,,0.00,meteohub,2013-05-03 20:02:00,
2013-05-03 16:12:00,63.1,39.7,30.47,NNW,338,4.0,9.0,42,0.00,,,0.00,meteohub,2013-05-03 20:12:00,
2013-05-03 16:17:00,62.8,38.8,30.47,ENE,68,1.0,9.0,41,0.00,,,0.00,meteohub,2013-05-03 20:17:00,
2013-05-03 16:22:00,62.8,38.8,30.47,NNW,338,3.0,9.0,41,0.00,,,0.00,meteohub,2013-05-03 20:22:00,
2013-05-03 16:27:00,62.8,38.8,30.47,North,0,4.0,6.0,41,0.00,,,0.00,meteohub,2013-05-03 20:27:00,
2013-05-03 16:32:00,62.1,38.1,30.47,NW,315,4.0,6.0,41,0.00,,,0.00,meteohub,2013-05-03 20:32:00,
2013-05-03 16:37:00,61.9,39.2,30.47,North,0,3.0,5.0,43,0.00,,,0.00,meteohub,2013-05-03 20:37:00,
2013-05-03 16:42:00,61.9,39.2,30.47,NE,45,3.0,5.0,43,0.00,,,0.00,meteohub,2013-05-03 20:42:00,
2013-05-03 16:47:00,61.9,39.2,30.47,North,0,5.0,6.0,43,0.00,,,0.00,meteohub,2013-05-03 20:47:00,
2013-05-03 16:52:00,61.5,38.8,30.47,NE,45,4.0,6.0,43,0.00,,,0.00,meteohub,2013-05-03 20:52:00,
2013-05-03 16:57:00,61.5,38.8,30.47,NE,45,6.0,6.0,43,0.00,,,0.00,meteohub,2013-05-03 20:57:00,
2013-05-03 17:02:00,61.7,39.0,30.47,North,0,0.0,7.0,43,0.00,,,0.00,meteohub,2013-05-03 21:02:00,
2013-05-03 17:07:00,61.5,39.4,30.47,NE,45,4.0,7.0,44,0.00,,,0.00,meteohub,2013-05-03 21:07:00,
2013-05-03 17:12:00,61.5,39.4,30.47,ENE,68,4.0,7.0,44,0.00,,,0.00,meteohub,2013-05-03 21:12:00,
2013-05-03 17:17:00,61.5,39.4,30.47,ENE,68,2.0,7.0,44,0.00,,,0.00,meteohub,2013-05-03 21:17:00,
2013-05-03 17:22:00,61.3,39.2,30.47,SW,225,1.0,7.0,44,0.00,,,0.00,meteohub,2013-05-03 21:22:00,
2013-05-03 17:27:00,61.2,39.0,30.47,ENE,68,6.0,7.0,44,0.00,,,0.00,meteohub,2013-05-03 21:27:00,
2013-05-03 17:32:00,61.2,39.0,30.47,East,90,0.0,9.0,44,0.00,,,0.00,meteohub,2013-05-03 21:32:00,
2013-05-03 17:37:00,61.3,39.2,30.47,NNE,22,3.0,9.0,44,0.00,,,0.00,meteohub,2013-05-03 21:37:00,
2013-05-03 17:42:00,61.3,39.2,30.47,ESE,112,2.0,9.0,44,0.00,,,0.00,meteohub,2013-05-03 21:42:00,
2013-05-03 17:47:00,61.5,39.4,30.44,ENE,68,6.0,6.0,44,0.00,,,0.00,meteohub,2013-05-03 21:47:00,
2013-05-03 17:52:00,61.2,39.0,30.44,SSE,158,2.0,6.0,44,0.00,,,0.00,meteohub,2013-05-03 21:52:00,
2013-05-03 17:57:00,61.0,39.0,30.44,NE,45,0.0,6.0,44,0.00,,,0.00,meteohub,2013-05-03 21:57:00,
2013-05-03 18:02:00,60.8,39.4,30.44,ENE,68,3.0,6.0,45,0.00,,,0.00,meteohub,2013-05-03 22:02:00,
2013-05-03 18:07:00,60.4,39.0,30.44,NE,45,2.0,6.0,45,0.00,,,0.00,meteohub,2013-05-03 22:07:00,
2013-05-03 18:12:00,60.1,39.2,30.44,NE,45,0.0,6.0,46,0.00,,,0.00,meteohub,2013-05-03 22:12:00,
2013-05-03 18:17:00,59.9,39.0,30.44,ENE,68,2.0,6.0,46,0.00,,,0.00,meteohub,2013-05-03 22:17:00,
2013-05-03 18:22:00,59.5,38.8,30.44,ENE,68,3.0,4.0,46,0.00,,,0.00,meteohub,2013-05-03 22:22:00,
2013-05-03 18:27:00,59.4,38.7,30.44,WSW,248,3.0,6.0,46,0.00,,,0.00,meteohub,2013-05-03 22:27:00,
2013-05-03 18:32:00,59.0,38.8,30.44,East,90,0.0,6.0,47,0.00,,,0.00,meteohub,2013-05-03 22:32:00,
2013-05-03 18:37:00,58.8,38.7,30.44,NNE,22,3.0,6.0,47,0.00,,,0.00,meteohub,2013-05-03 22:37:00,
2013-05-03 18:42:00,58.6,39.0,30.44,ENE,68,3.0,6.0,48,0.00,,,0.00,meteohub,2013-05-03 22:42:00,
2013-05-03 18:47:00,58.5,38.8,30.44,ENE,68,2.0,5.0,48,0.00,,,0.00,meteohub,2013-05-03 22:47:00,
2013-05-03 18:52:00,58.3,38.7,30.44,SSE,158,3.0,5.0,48,0.00,,,0.00,meteohub,2013-05-03 22:52:00,
2013-05-03 18:57:00,58.1,38.5,30.44,ENE,68,3.0,5.0,48,0.00,,,0.00,meteohub,2013-05-03 22:57:00,
2013-05-03 19:02:00,57.9,38.3,30.44,WSW,248,0.0,5.0,48,0.00,,,0.00,meteohub,2013-05-03 23:02:00,
2013-05-03 19:07:00,57.7,38.7,30.44,NNE,22,4.0,5.0,49,0.00,,,0.00,meteohub,2013-05-03 23:07:00,
2013-05-03 19:12:00,57.6,38.7,30.44,North,0,0.0,6.0,49,0.00,,,0.00,meteohub,2013-05-03 23:12:00,
2013-05-03 19:17:00,57.4,38.8,30.47,North,0,3.0,6.0,50,0.00,,,0.00,meteohub,2013-05-03 23:17:00,
2013-05-03 19:22:00,57.2,38.8,30.47,NE,45,2.0,6.0,50,0.00,,,0.00,meteohub,2013-05-03 23:22:00,
2013-05-03 19:32:00,56.5,38.7,30.47,NNW,338,0.0,4.0,51,0.00,,,0.00,meteohub,2013-05-03 23:32:00,
2013-05-03 19:37:00,56.3,38.5,30.47,NE,45,2.0,4.0,51,0.00,,,0.00,meteohub,2013-05-03 23:37:00,
2013-05-03 19:42:00,55.9,38.7,30.47,ENE,68,3.0,4.0,52,0.00,,,0.00,meteohub,2013-05-03 23:42:00,
2013-05-03 19:47:00,55.8,38.5,30.47,NE,45,1.0,6.0,52,0.00,,,0.00,meteohub,2013-05-03 23:47:00,
2013-05-03 19:52:00,55.2,37.9,30.47,ENE,68,3.0,6.0,52,0.00,,,0.00,meteohub,2013-05-03 23:52:00,
2013-05-03 19:57:00,54.7,37.9,30.47,NE,45,3.0,6.0,53,0.00,,,0.00,meteohub,2013-05-03 23:57:00,
2013-05-03 20:02:00,54.3,37.6,30.47,SE,135,0.0,4.0,53,0.00,,,0.00,meteohub,2013-05-04 00:02:00,
2013-05-03 20:07:00,54.0,37.2,30.47,WNW,292,2.0,4.0,53,0.00,,,0.00,meteohub,2013-05-04 00:07:00,
2013-05-03 20:12:00,53.4,36.7,30.47,ESE,112,0.0,4.0,53,0.00,,,0.00,meteohub,2013-05-04 00:12:00,
2013-05-03 20:17:00,52.9,36.7,30.47,SSE,158,0.0,3.0,54,0.00,,,0.00,meteohub,2013-05-04 00:17:00,
2013-05-03 20:22:00,52.7,37.0,30.47,WSW,248,0.0,3.0,55,0.00,,,0.00,meteohub,2013-05-04 00:22:00,
2013-05-03 20:27:00,52.2,36.5,30.47,SSW,202,0.0,3.0,55,0.00,,,0.00,meteohub,2013-05-04 00:27:00,
2013-05-03 20:32:00,52.2,36.5,30.47,WSW,248,0.0,0.0,55,0.00,,,0.00,meteohub,2013-05-04 00:32:00,
2013-05-03 20:37:00,51.8,36.7,30.47,SSW,202,0.0,0.0,56,0.00,,,0.00,meteohub,2013-05-04 00:37:00,
2013-05-03 20:42:00,51.4,36.7,30.47,SSW,202,0.0,0.0,57,0.00,,,0.00,meteohub,2013-05-04 00:42:00,
2013-05-03 20:47:00,51.1,36.3,30.47,East,90,0.0,0.0,57,0.00,,,0.00,meteohub,2013-05-04 00:47:00,
2013-05-03 20:52:00,50.7,36.5,30.47,ENE,68,0.0,0.0,58,0.00,,,0.00,meteohub,2013-05-04 00:52:00,
2013-05-03 20:57:00,50.4,36.7,30.47,East,90,0.0,0.0,59,0.00,,,0.00,meteohub,2013-05-04 00:57:00,
2013-05-03 21:02:00,50.2,36.5,30.47,East,90,0.0,0.0,59,0.00,,,0.00,meteohub,2013-05-04 01:02:00,
2013-05-03 21:07:00,50.0,36.3,30.47,SSE,158,0.0,0.0,59,0.00,,,0.00,meteohub,2013-05-04 01:07:00,
2013-05-03 21:12:00,49.6,36.3,30.47,SSE,158,0.0,0.0,60,0.00,,,0.00,meteohub,2013-05-04 01:12:00,
2013-05-03 21:17:00,49.5,36.7,30.47,SSE,158,0.0,0.0,61,0.00,,,0.00,meteohub,2013-05-04 01:17:00,
2013-05-03 21:22:00,49.1,36.7,30.47,SSE,158,0.0,0.0,62,0.00,,,0.00,meteohub,2013-05-04 01:22:00,
2013-05-03 21:27:00,48.9,36.5,30.47,SSE,158,0.0,0.0,62,0.00,,,0.00,meteohub,2013-05-04 01:27:00,
2013-05-03 21:32:00,48.9,36.5,30.47,SSE,158,0.0,0.0,62,0.00,,,0.00,meteohub,2013-05-04 01:32:00,
2013-05-03 21:37:00,48.7,36.7,30.47,SSE,158,0.0,0.0,63,0.00,,,0.00,meteohub,2013-05-04 01:37:00,
2013-05-03 21:42:00,48.6,37.0,30.47,SSE,158,0.0,0.0,64,0.00,,,0.00,meteohub,2013-05-04 01:42:00,
2013-05-03 21:47:00,48.4,36.9,30.47,SSE,158,0.0,0.0,64,0.00,,,0.00,meteohub,2013-05-04 01:47:00,
2013-05-03 21:52:00,48.2,36.7,30.47,East,90,0.0,0.0,64,0.00,,,0.00,meteohub,2013-05-04 01:52:00,
2013-05-03 21:57:00,47.8,37.0,30.47,East,90,0.0,0.0,66,0.00,,,0.00,meteohub,2013-05-04 01:57:00,
2013-05-03 22:02:00,47.7,36.9,30.47,East,90,0.0,0.0,66,0.00,,,0.00,meteohub,2013-05-04 02:02:00,
2013-05-03 22:07:00,47.5,37.0,30.47,East,90,0.0,0.0,67,0.00,,,0.00,meteohub,2013-05-04 02:07:00,
2013-05-03 22:12:00,47.3,36.9,30.47,East,90,0.0,0.0,67,0.00,,,0.00,meteohub,2013-05-04 02:12:00,
2013-05-03 22:17:00,47.1,37.0,30.47,East,90,0.0,0.0,68,0.00,,,0.00,meteohub,2013-05-04 02:17:00,
2013-05-03 22:22:00,46.9,37.0,30.47,East,90,0.0,0.0,68,0.00,,,0.00,meteohub,2013-05-04 02:22:00,
2013-05-03 22:27:00,46.8,37.2,30.47,East,90,0.0,0.0,69,0.00,,,0.00,meteohub,2013-05-04 02:27:00,
2013-05-03 22:32:00,46.8,36.9,30.47,ESE,112,0.0,0.0,68,0.00,,,0.00,meteohub,2013-05-04 02:32:00,
2013-05-03 22:37:00,46.8,37.2,30.47,ESE,112,0.0,0.0,69,0.00,,,0.00,meteohub,2013-05-04 02:37:00,
2013-05-03 22:42:00,46.6,37.0,30.47,ESE,112,0.0,0.0,69,0.00,,,0.00,meteohub,2013-05-04 02:42:00,
2013-05-03 22:47:00,46.4,37.2,30.47,East,90,0.0,0.0,70,0.00,,,0.00,meteohub,2013-05-04 02:47:00,
2013-05-03 22:52:00,46.2,37.0,30.47,East,90,0.0,0.0,70,0.00,,,0.00,meteohub,2013-05-04 02:52:00,
2013-05-03 22:57:00,46.0,37.2,30.47,East,90,0.0,0.0,71,0.00,,,0.00,meteohub,2013-05-04 02:57:00,
2013-05-03 23:02:00,46.0,37.2,30.47,East,90,0.0,0.0,71,0.00,,,0.00,meteohub,2013-05-04 03:02:00,
2013-05-03 23:07:00,45.7,36.9,30.47,East,90,0.0,0.0,71,0.00,,,0.00,meteohub,2013-05-04 03:07:00,
2013-05-03 23:12:00,45.5,37.0,30.47,East,90,0.0,0.0,72,0.00,,,0.00,meteohub,2013-05-04 03:12:00,
2013-05-03 23:17:00,45.1,36.7,30.47,East,90,0.0,0.0,72,0.00,,,0.00,meteohub,2013-05-04 03:17:00,
2013-05-03 23:22:00,45.1,36.7,30.47,East,90,0.0,0.0,72,0.00,,,0.00,meteohub,2013-05-04 03:22:00,
2013-05-03 23:27:00,45.1,37.0,30.47,East,90,0.0,0.0,73,0.00,,,0.00,meteohub,2013-05-04 03:27:00,
2013-05-03 23:32:00,44.8,36.7,30.44,East,90,0.0,0.0,73,0.00,,,0.00,meteohub,2013-05-04 03:32:00,
2013-05-03 23:37:00,44.6,36.5,30.44,East,90,0.0,0.0,73,0.00,,,0.00,meteohub,2013-05-04 03:37:00,
2013-05-03 23:42:00,44.6,36.9,30.44,East,90,0.0,0.0,74,0.00,,,0.00,meteohub,2013-05-04 03:42:00,
2013-05-03 23:47:00,44.2,36.5,30.44,East,90,0.0,0.0,74,0.00,,,0.00,meteohub,2013-05-04 03:47:00,
2013-05-03 23:52:00,44.1,36.7,30.44,East,90,0.0,0.0,75,0.00,,,0.00,meteohub,2013-05-04 03:52:00,
2013-05-03 23:57:00,44.1,36.7,30.44,East,90,0.0,0.0,75,0.00,,,0.00,meteohub,2013-05-04 03:57:00,